SHT8L EGCC-EGLL

Flight info

Callsign SHT8L
Flight time N/A
Altitude 17000
Route LISTO L612 HON
Aircraft A320/M-SDE3FGHIRWY/LB1

Departure

Time 2026-05-04 13:37
Airport Manchester Airport (EGCC)

Arrival

Time N/A
Airport London Heathrow Airport (EGLL)
Time Latitude Longitude Altitude Speed Heading
2026-05-04 13:13 53.36948 -2.28696 247 ft 0 kts 133°
2026-05-04 13:25 53.36948 -2.28698 247 ft 2 kts 133°
2026-05-04 13:25 53.36965 -2.28726 247 ft 2 kts 135°
2026-05-04 13:25 53.36978 -2.28744 247 ft 4 kts 189°
2026-05-04 13:26 53.36993 -2.28731 247 ft 0 kts 225°
2026-05-04 13:26 53.36976 -2.28759 247 ft 4 kts 225°
2026-05-04 13:26 53.36957 -2.28790 247 ft 4 kts 225°
2026-05-04 13:26 53.36953 -2.28796 247 ft 0 kts 225°
2026-05-04 13:30 53.36934 -2.28828 247 ft 9 kts 225°
2026-05-04 13:30 53.36882 -2.28914 247 ft 12 kts 224°
2026-05-04 13:31 53.36816 -2.29016 247 ft 13 kts 210°
2026-05-04 13:31 53.36728 -2.29011 247 ft 15 kts 142°
2026-05-04 13:31 53.36646 -2.28899 247 ft 13 kts 157°
2026-05-04 13:31 53.36590 -2.28808 247 ft 12 kts 117°
2026-05-04 13:32 53.36535 -2.28682 247 ft 15 kts 133°
2026-05-04 13:32 53.36459 -2.28554 247 ft 12 kts 134°
2026-05-04 13:32 53.36382 -2.28476 247 ft 14 kts 173°
2026-05-04 13:32 53.36296 -2.28388 247 ft 16 kts 134°
2026-05-04 13:33 53.36211 -2.28242 247 ft 19 kts 134°
2026-05-04 13:33 53.36113 -2.28078 247 ft 21 kts 135°
2026-05-04 13:33 53.36007 -2.27902 247 ft 20 kts 135°
2026-05-04 13:33 53.35878 -2.27853 247 ft 21 kts 186°
2026-05-04 13:34 53.35726 -2.27877 247 ft 23 kts 186°
2026-05-04 13:34 53.35564 -2.27907 247 ft 24 kts 186°
2026-05-04 13:34 53.35408 -2.28000 243 ft 25 kts 222°
2026-05-04 13:34 53.35272 -2.28221 237 ft 30 kts 226°
2026-05-04 13:35 53.35135 -2.28502 230 ft 32 kts 231°
2026-05-04 13:35 53.34858 -2.29013 220 ft 30 kts 226°
2026-05-04 13:35 53.34723 -2.29278 215 ft 26 kts 225°
2026-05-04 13:36 53.34589 -2.29330 209 ft 19 kts 166°
2026-05-04 13:36 53.34565 -2.29166 210 ft 18 kts 51°
2026-05-04 13:36 53.34741 -2.28805 224 ft 72 kts 51°
2026-05-04 13:36 53.35181 -2.27893 246 ft 127 kts 51°
2026-05-04 13:37 53.35813 -2.26568 452 ft 148 kts 52°
2026-05-04 13:37 53.36451 -2.25230 961 ft 149 kts 51°
2026-05-04 13:37 53.37112 -2.23869 1463 ft 151 kts 51°
2026-05-04 13:37 53.37553 -2.22964 1781 ft 153 kts 51°
2026-05-04 13:38 53.38434 -2.21064 2293 ft 163 kts 62°
2026-05-04 13:38 53.38526 -2.18977 2185 ft 204 kts 114°
2026-05-04 13:38 53.37530 -2.17195 2508 ft 224 kts 150°
2026-05-04 13:38 53.36053 -2.16107 3046 ft 236 kts 163°
2026-05-04 13:39 53.34394 -2.16008 3628 ft 251 kts 192°
2026-05-04 13:39 53.32999 -2.16736 4157 ft 261 kts 199°
2026-05-04 13:39 53.31212 -2.17498 4810 ft 270 kts 190°
2026-05-04 13:39 53.29348 -2.17898 4978 ft 271 kts 185°
2026-05-04 13:40 53.27470 -2.18131 5004 ft 270 kts 184°
2026-05-04 13:40 53.25596 -2.18326 5007 ft 270 kts 184°
2026-05-04 13:40 53.23731 -2.18534 5006 ft 269 kts 184°
2026-05-04 13:40 53.21865 -2.18771 5007 ft 269 kts 185°
2026-05-04 13:41 53.19999 -2.19037 5006 ft 269 kts 185°
2026-05-04 13:41 53.18134 -2.19317 5005 ft 269 kts 185°
2026-05-04 13:41 53.16284 -2.19599 5006 ft 270 kts 185°
2026-05-04 13:42 53.12611 -2.18699 5371 ft 275 kts 156°
2026-05-04 13:42 53.10863 -2.17456 6383 ft 273 kts 158°
2026-05-04 13:42 53.09096 -2.16235 7236 ft 276 kts 158°
2026-05-04 13:42 53.07304 -2.15007 8053 ft 281 kts 158°
2026-05-04 13:43 53.05480 -2.13756 8866 ft 285 kts 158°
2026-05-04 13:43 53.03633 -2.12490 9677 ft 289 kts 158°
2026-05-04 13:43 53.01756 -2.11201 10344 ft 298 kts 158°
2026-05-04 13:43 52.99762 -2.09829 10537 ft 322 kts 158°
2026-05-04 13:44 52.97619 -2.08358 10728 ft 343 kts 158°
2026-05-04 13:44 52.95413 -2.06845 11235 ft 351 kts 158°
2026-05-04 13:44 52.93140 -2.05283 11894 ft 355 kts 158°
2026-05-04 13:44 52.90845 -2.03707 12568 ft 358 kts 158°
2026-05-04 13:45 52.88531 -2.02118 13257 ft 362 kts 158°
2026-05-04 13:45 52.86196 -2.00516 13930 ft 365 kts 159°
2026-05-04 13:45 52.83837 -1.98902 14530 ft 369 kts 159°
2026-05-04 13:45 52.81455 -1.97277 15119 ft 371 kts 159°
2026-05-04 13:46 52.79061 -1.95643 15712 ft 374 kts 159°
2026-05-04 13:46 52.76646 -1.93996 16303 ft 377 kts 159°
2026-05-04 13:46 52.74212 -1.92335 16856 ft 379 kts 158°
2026-05-04 13:46 52.71773 -1.90673 17036 ft 380 kts 159°
2026-05-04 13:47 52.69289 -1.88986 17080 ft 397 kts 158°
2026-05-04 13:47 52.66669 -1.87213 17082 ft 414 kts 159°
2026-05-04 13:47 52.63990 -1.85404 17079 ft 418 kts 158°
2026-05-04 13:47 52.61295 -1.83585 17080 ft 420 kts 158°
2026-05-04 13:48 52.58594 -1.81763 17082 ft 420 kts 158°
2026-05-04 13:48 52.55884 -1.79936 17083 ft 420 kts 158°
2026-05-04 13:48 52.53182 -1.78116 17083 ft 420 kts 158°
2026-05-04 13:48 52.50480 -1.76298 17084 ft 420 kts 158°
2026-05-04 13:49 52.47784 -1.74483 17084 ft 419 kts 158°
2026-05-04 13:49 52.45087 -1.72672 17083 ft 418 kts 158°
2026-05-04 13:49 52.42404 -1.70873 17084 ft 418 kts 158°
2026-05-04 13:49 52.39709 -1.69071 17082 ft 417 kts 158°
2026-05-04 13:50 52.37040 -1.67193 17076 ft 418 kts 154°